Weather in Nouakchott

Mauritania     18°03′19″N   15°58′07″W
temp.,
°C
wind,
m/s
gust,
m/s
humid.,
%
clouds,
%
prec.,
mm/h
press.,
hPa
HPBL,
m
8 march, mon
mon800:00+20n785525 0.0 1015102
03:00+19n79620 0.0 1014131
06:00+18nne814460 0.0 1013254
09:00+19nne1014537 0.0 1016413
12:00+23nne89434 0.0 1016334
15:00+25nnw67410 0.0 1012508
18:00+21nw1012620 0.0 1011247
21:00+19nnw1014700 0.0 1013194
9 march, tue
tue900:00+19n812740 0.0 1014206
03:00+18n711670 0.0 1013196
06:00+18nne814560 0.0 1013289
09:00+19ne914575 0.0 1015400
12:00+23ne894642 0.0 1015346
15:00+25n674146 0.0 1012467
18:00+22nw895673 0.0 1010300
21:00+23n684682 0.0 101379
10 march, wed
wed1000:00+20n675791 0.0 101383
03:00+20nne6747100 0.0 101296
06:00+19nne71349100 0.0 1012280
09:00+18ne10145298 0.0 1014456
12:00+22ne784399 0.0 1015335
15:00+24n5737100 0.0 1012419
18:00+22nw785198 0.0 1011282
21:00+22n6736100 0.0 101353
11 march, thu
thu1100:00+21n6737100 0.0 101473
03:00+20n6739100 0.0 101372
06:00+19ne6937100 0.0 1012137
09:00+20ne71037100 0.0 1014235
12:00+25ene792996 0.0 1014365
15:00+28ene562792 0.0 1010531
18:00+27n463193 0.0 1010623
21:00+21nnw785364 0.0 101266
12 march, fri
fri1200:00+21n675582 0.0 101257
03:00+22ne453898 0.0 101131
06:00+22ene8123690 0.0 1011167
09:00+22ene91334100 0.0 1014311
12:00+26ene9112896 0.0 1014367
15:00+28ene782674 0.0 1010484
18:00+28ne562655 0.0 1009530
21:00+25ne673025 0.0 101135